sat.trackr.live / text

‹ back to catalog

STARLINK-30605

NORAD 58101 · 2023-161E

PAYLOAD ACTIVE UNKNOWN

§ Identity

Operator
Country
US
Launch date
2023-10-21
Launch site
AFWTR
Launch vehicle
Mass (kg)
RCS (m²)

Purposes: comms

External: N2YO · Heavens-Above · Gunter

§ Orbital elements

Epoch: 2026-09-20T11:34:36.288480Z

Period
93.85 min
Inclination
53.1620°
Eccentricity
0.0001523
Mean motion
15.34398755 rev/d
Perigee alt
461.7 km
Apogee alt
463.7 km
Semi-major
6,840.8 km
B*
2.9184e-6
RAAN
338.0199°
Arg perigee
65.5507°
Mean anomaly
294.5654°
Rev number
16,428

§ Raw data

STARLINK-306051 58101U 23161E   26263.48236445 -.00000278  00000+0  29184-5 0  99992 58101  53.1620 338.0199 0001523  65.5507 294.5654 15.34398755164282

JSON: /api/v1/satellites/58101 · /tle

For live sub-satellite position, see the globe view (requires WebGL).

§ Visibility from observer

Set your observer location to see the next 7 days of passes ≥ 10°. The values pass through the URL so the page stays shareable.

No JS? Fill the form by hand. The geolocation button needs JavaScript.